Torna al catalogo

STARLINK-34858

AttivoComunicazioniVLEO
NORAD 65023·PAYLOAD·🇺🇸 United States

Lanciato Jul 30, 2025 da Cape Canaveral Space Force Station

Loading…

Prossimi Passaggi (prossime 24 ore)

TLE

AggiornatoSource: CelesTrak SupGP

Epoca: Sep 15, 2026, 03:18 UTC

1 65023C 25161J   26258.13798611  .00048451  00000+0  14316-2 0  2586
2 65023  53.1561 132.4788 0001303  84.5180 145.3696 15.34363522    14

Traccia STARLINK-34858 in tempo reale con AllMySat

Download on the App Store